Regional Weather Roundup
Issued by NWS

Home | Current Version | Previous Version | Graphics & Text | Print | Product List | Glossary On
Versions: 1 2 3 4 5 6 7 8 9 10 11 12 13 14 15 16 17 18 19 20 21 22 23 24 25 26 27 28 29 30 31 32 33 34 35 36 37 38 39 40 41 42 43 44 45 46 47 48 49 50
000
ASUS43 KDMX 062204
RWRIA

WEATHER ROUNDUP FOR IOWA
NATIONAL WEATHER SERVICE DES MOINES IA
  ISSUED BY NWS QUAD CITIES IA IL
400 PM CST FRI MAR 06 2015

NOTE: "FAIR" INDICATES FEW OR NO CLOUDS BELOW 12,000 FEET WITH NO
SIGNIFICANT WEATHER AND/OR OBSTRUCTIONS TO VISIBILITY.

* - THESE STATIONS ARE NOT NWS STATIONS...THUS NOT UNDER NWS
QUALITY CONTROL.  THEY ALSO DO NOT REPORT WEATHER SUCH
AS PRECIPITATION OR FOG.

IAZ001>003-012>014-020>022-031>034-043>046-062300-
   NORTHWEST IOWA

CITY           SKY/WX    TMP DP  RH WIND       PRES   REMARKS
CARROLL *      PTSUNNY   54  27  35 SW17      30.08F
CHEROKEE *     MOCLDY    50  26  38 NW8       30.09S
DENNISON *     MOSUNNY   57  23  26 NW18G26   30.07S
LE MARS *      PTSUNNY   52  23  32 NW13      30.11S
ORANGE CITY *  CLOUDY    52  21  30 NW12      30.10R
SHELDON *      CLOUDY    45  25  45 NW13      30.09R WCI  38
SIOUX CITY     MOSUNNY   57  22  25 NW15      30.10R
SPENCER        PTSUNNY   46  27  47 NW13      30.09R
STORM LAKE *   PTSUNNY   50  25  37 NW14      30.09R
$$

IAZ055>058-069>071-079>083-090>094-062300-
   SOUTHWEST IOWA

CITY           SKY/WX    TMP DP  RH WIND       PRES   REMARKS
ATLANTIC *     MOSUNNY   59  23  25 SW16      30.10F
AUDUBON *      MOSUNNY   54  23  30 SW6       30.11F
CLARINDA *     SUNNY     61  16  17 W14       30.16F
COUNCIL BLFS * SUNNY     61  19  20 W15G22    30.10S
CRESTON *      SUNNY     55  19  24 W14G21    30.14S
HARLAN *       MOSUNNY   59  25  27 W17       30.12F
LAMONI         SUNNY     55  23  28 W14       30.15F
RED OAK *      MOSUNNY   59  19  21 W10G18    30.13F
SHENANDOAH *   SUNNY     63  16  16 SW13      30.15S
$$

IAZ047>049-059>061-072>074-084-062300-
   CENTRAL IOWA

CITY           SKY/WX    TMP DP  RH WIND       PRES   REMARKS
AMES           MOSUNNY   48  29  47 SW10      30.10F
ANKENY *       SUNNY     52  23  32 SW9G17    30.12F
BOONE *        MOSUNNY   48  27  43 SW12G17   30.08F
CHARITON *     SUNNY     54  21  28 W15       30.14F
DES MOINES     PTSUNNY   55  23  28 W10       30.12F
GRINNELL *     CLEAR     45  26  49 SW10      30.13F WCI  39
KNOXVILLE *    SUNNY     54  21  28 W13       30.12F
MARSHALLTOWN   MOSUNNY   42  27  55 SW8       30.10F WCI  37
NEWTON *       SUNNY     48  28  46 SW9G16    30.12F
PELLA *        SUNNY     52  28  39 W7        30.14F
PERRY *        FAIR      53  28  38 W12       30.10F
$$

IAZ004>006-015-016-023>025-035-036-062300-
   NORTH CENTRAL IOWA

CITY           SKY/WX    TMP DP  RH WIND       PRES   REMARKS
ALGONA *       MOSUNNY   46 N/A N/A NW10      30.08S
CLARION *      MOSUNNY   45  36  70 W9        30.08S WCI  40
ESTHERVILLE    PTSUNNY   42  29  59 W10       30.07S WCI  36
FORT DODGE *   PTSUNNY   48  30  49 SW7       30.10S
MASON CITY     MOSUNNY   40  31  70 NW7       30.08R WCI  35
FOREST CITY *  FAIR      43  28  56 NW7       30.06S WCI  39
WEBSTER CITY * MOSUNNY   45  32  61 SW10      30.07F WCI  39
IOWA FALLS *   FAIR      42  31  66 SW7       30.10S WCI  37
$$

IAZ007>011-017>019-026>030-037>042-050>054-066-062300-
   NORTHEAST IOWA

CITY           SKY/WX    TMP DP  RH WIND       PRES   REMARKS
CEDAR RAPIDS   SUNNY     37  25  61 SW12      30.13F WCI  29
CHARLES CITY * SUNNY     36  28  75 SW9       30.08F WCI  29
CLINTON *      SUNNY     34  23  64 SW13      30.19F WCI  25
DECORAH *      SUNNY     34  21  60 VRB7G15   30.07S WCI  28
DUBUQUE        SUNNY     30  20  66 SW15      30.11F WCI  19
MONTICELLO *   SUNNY     36  25  64 S9        30.13F WCI  29
OELWEIN *      SUNNY     34  25  69 SW13      30.10F WCI  25
WATERLOO       SUNNY     36  26  67 SW13      30.10F WCI  27
$$

IAZ064-065-067-068-078-062300-
   EAST CENTRAL IOWA

CITY           SKY/WX    TMP DP  RH WIND       PRES   REMARKS
DAVENPORT      SUNNY     36  21  54 S12       30.17F WCI  28
IOWA CITY      SUNNY     39  24  55 SW8       30.18S WCI  33
MT. PLEASANT * SUNNY     45  27  48 SW9       30.18F
MUSCATINE *    SUNNY     41  25  52 SW10      30.18F WCI  35
QUAD CITIES    SUNNY     36  22  56 SW9       30.18F WCI  29
$$

IAZ062-063-075>077-085>089-095>099-062300-
   SOUTHEAST IOWA

CITY           SKY/WX    TMP DP  RH WIND       PRES   REMARKS
BURLINGTON     SUNNY     42  28  57 SW7       30.18F WCI  38
FAIRFIELD *    SUNNY     48  27  43 SW10G16   30.17S
FORT MADISON * SUNNY     46  25  42 W9        30.19F
KEOKUK *       SUNNY     48  28  46 SW10      30.19S
OSKALOOSA *    FAIR      49  26  40 W16       30.15S
CENTERVILLE *  FAIR      52  25  35 W14       30.18S
OTTUMWA        SUNNY     51  23  33 W13G21    30.15S
WASHINGTON *   SUNNY     43  28  56 SW10      30.17S WCI  37
$$

ABBREVIATIONS USED IN REMARKS
   TC - TEMPERATURES IN CELSIUS
  WCI - WIND CHILL INDEX
   HX - HEAT INDEX
  VSB - VISIBILITY
$$


USA.gov is the U.S. government's official web portal to all federal, state and local government web resources and services.